DW3039 Karjalohja FI current weather conditions

sailwx.info

Wind from 188 at 1 knots gusting 4

Air temperature 16.7° C
Dewpoint 16.4° C

Last reported at 2015-Aug-31 09:51 UTC.
Time now 2015-Aug-31 10:55 UTC

Location: N 60°16' E 023°41'.
View on Google Maps.

See reports from other nearby stations

  
Tides and Currents Weather Stations Pressure Air Temp Water Temp Dewpoint Dewpoint Depression Visibility Wind Speed Wind Dir Waves Ship Positions
date/time (UTC)wind fromknots sea level pressurealtimeterstation pressurevisibilityair tempwater tempwave heightnotes
2015-Aug-31 09:51 188 1 gusting 4 16.7
2015-Aug-31 09:41 194 16.7
2015-Aug-31 09:31 199 16.7
2015-Aug-31 09:21 198 2 gusting 4 16.7
2015-Aug-31 09:11 035 16.1
2015-Aug-31 09:01 197 0 gusting 2 15.6
2015-Aug-31 08:51 104 0 gusting 2 15.6
2015-Aug-31 08:41 338 15.0
2015-Aug-31 08:31 131 15.0
2015-Aug-31 08:21 130 1 gusting 3 15.0
2015-Aug-31 08:11 122 15.0
2015-Aug-31 08:01 129 14.4
2015-Aug-31 07:51 165 14.4
2015-Aug-31 07:41 165 13.9
2015-Aug-31 07:31 165 13.9
2015-Aug-31 07:21 220 13.3
2015-Aug-31 07:11 220 13.3
2015-Aug-31 07:01 220 13.3
2015-Aug-31 06:51 220 12.8
2015-Aug-31 06:41 220 12.8
2015-Aug-31 06:31 220 12.2
2015-Aug-31 06:21 220 12.2
2015-Aug-31 06:11 220 12.2
2015-Aug-31 06:01 220 11.7
2015-Aug-31 05:51 220 11.7
2015-Aug-31 05:41 220 11.1
2015-Aug-31 05:31 220 10.6
2015-Aug-31 05:21 220 10.6
2015-Aug-31 05:11 220 10.6
2015-Aug-31 05:01 220 10.0
2015-Aug-31 04:51 220 10.0
2015-Aug-31 04:41 220 10.0
2015-Aug-31 04:31 220 10.0
2015-Aug-31 04:21 220 9.4
2015-Aug-31 04:10 220 9.4
2015-Aug-31 04:00 220 9.4
2015-Aug-31 03:50 220 9.4
2015-Aug-31 03:40 220 9.4
2015-Aug-31 03:30 220 9.4
2015-Aug-31 03:20 220 10.0
2015-Aug-31 03:10 220 10.0
2015-Aug-31 03:00 220 10.0
2015-Aug-31 02:50 220 10.0
2015-Aug-31 02:40 220 10.0
2015-Aug-31 02:30 220 10.0
2015-Aug-31 02:20 220 10.0
2015-Aug-31 02:10 220 10.0
2015-Aug-31 02:00 220 10.0
2015-Aug-31 01:50 220 10.0
2015-Aug-31 01:40 220 10.0
2015-Aug-31 01:30 220 10.0
2015-Aug-31 01:20 220 10.0
2015-Aug-31 01:10 220 10.6
2015-Aug-31 01:00 220 10.6
2015-Aug-31 00:50 220 10.6
2015-Aug-31 00:40 220 10.6
2015-Aug-31 00:30 220 10.6
2015-Aug-31 00:20 220 10.6
2015-Aug-31 00:10 220 10.6
2015-Aug-31 00:00 220 10.6
2015-Aug-30 23:50 220 10.6
2015-Aug-30 23:40 220 10.6
2015-Aug-30 23:30 220 10.6
2015-Aug-30 23:20 220 10.6
2015-Aug-30 23:10 220 10.6
2015-Aug-30 23:00 220 10.6
2015-Aug-30 22:50 220 11.1
2015-Aug-30 22:40 220 11.1
2015-Aug-30 22:30 220 11.1
2015-Aug-30 22:20 220 11.1
2015-Aug-30 22:10 220 11.1
2015-Aug-30 22:00 220 11.1
2015-Aug-30 21:50 220 11.1
2015-Aug-30 21:40 220 11.1
2015-Aug-30 21:30 220 11.1
2015-Aug-30 21:20 220 11.1
2015-Aug-30 21:10 220 11.7
2015-Aug-30 21:00 220 11.7
2015-Aug-30 20:50 220 11.7
2015-Aug-30 20:40 220 11.7
2015-Aug-30 20:30 220 11.7
2015-Aug-30 20:19 220 11.7
2015-Aug-30 20:09 220 11.7
2015-Aug-30 19:59 220 11.7
2015-Aug-30 19:49 220 11.7
2015-Aug-30 19:39 220 12.2
2015-Aug-30 19:29 220 12.2
2015-Aug-30 19:19 220 12.2
2015-Aug-30 19:09 220 12.2
2015-Aug-30 18:59 220 12.2
2015-Aug-30 18:49 220 12.2
2015-Aug-30 18:39 220 12.8
2015-Aug-30 18:29 220 12.8
2015-Aug-30 18:19 220 12.8
2015-Aug-30 18:09 220 12.8
2015-Aug-30 17:59 220 13.3
2015-Aug-30 17:49 220 13.3
2015-Aug-30 17:39 220 13.3
2015-Aug-30 17:29 220 13.3
2015-Aug-30 17:18 220 13.3
2015-Aug-30 17:08 220 13.9
2015-Aug-30 16:58 220 13.9
2015-Aug-30 16:48 220 13.9
2015-Aug-30 16:38 220 13.9
2015-Aug-30 16:28 220 13.9
2015-Aug-30 16:18 220 13.9
2015-Aug-30 16:08 220 13.9
2015-Aug-30 15:58 220 13.9
2015-Aug-30 15:48 060 13.9
2015-Aug-30 15:38 060 13.9
2015-Aug-30 15:28 060 13.9
2015-Aug-30 15:18 060 13.9
2015-Aug-30 15:08 060 13.9
2015-Aug-30 14:58 060 13.9
2015-Aug-30 14:48 060 13.9
2015-Aug-30 14:38 060 13.9
2015-Aug-30 14:28 038 13.9
2015-Aug-30 14:18 039 1 gusting 3 13.9
2015-Aug-30 14:08 334 13.9
2015-Aug-30 13:58 017 3 gusting 10 14.4
2015-Aug-30 13:48 017 4 gusting 7 15.0
2015-Aug-30 13:38 002 15.6
2015-Aug-30 13:28 002 15.6
2015-Aug-30 13:18 046 15.6
2015-Aug-30 13:08 294 1 gusting 12 16.1
2015-Aug-30 12:58 011 5 gusting 8 16.7
2015-Aug-30 12:48 012 5 gusting 11 17.8
2015-Aug-30 12:38 027 6 gusting 12 18.3
2015-Aug-30 12:28 193 2 gusting 7 18.3
2015-Aug-30 12:18 189 4 gusting 6 18.3
2015-Aug-30 12:08 352 4 gusting 9 18.3
2015-Aug-30 11:58 215 3 gusting 9 18.3
2015-Aug-30 11:48 223 6 gusting 14 18.9
2015-Aug-30 11:38 201 3 gusting 9 18.3
2015-Aug-30 11:28 220 6 gusting 13 18.3
2015-Aug-30 11:18 211 6 gusting 17 18.3
2015-Aug-30 11:08 236 5 gusting 10 17.8
2015-Aug-30 10:58 203 4 gusting 10 17.2
2015-Aug-30 10:48 242 2 gusting 10 17.2
2015-Aug-30 10:38 222 4 gusting 10 17.2
2015-Aug-30 10:28 227 4 gusting 17 17.8
2015-Aug-30 10:18 205 6 gusting 13 17.2
2015-Aug-30 10:08 226 6 gusting 13 17.2
2015-Aug-30 09:58 193 1 gusting 9 17.2
2015-Aug-30 09:48 208 2 gusting 8 17.2
2015-Aug-30 09:37 202 3 gusting 6 16.7
2015-Aug-30 09:27 196 1 gusting 8 16.7
2015-Aug-30 09:17 214 5 gusting 8 16.7
2015-Aug-30 09:07 205 3 gusting 7 16.7
2015-Aug-30 08:57 217 3 gusting 6 16.7
2015-Aug-30 08:47 221 1 gusting 7 16.1
2015-Aug-30 08:37 239 1 gusting 8 16.1
2015-Aug-30 08:27 208 3 gusting 6 16.1
2015-Aug-30 08:17 220 3 gusting 8 16.1
2015-Aug-30 08:07 218 5 gusting 7 16.1
2015-Aug-30 07:57 213 3 gusting 13 16.1
2015-Aug-30 07:47 207 4 gusting 8 15.6
2015-Aug-30 07:37 214 4 gusting 8 15.0
2015-Aug-30 07:27 219 4 gusting 7 15.0
2015-Aug-30 07:17 221 2 gusting 8 14.4
2015-Aug-30 07:07 214 4 gusting 7 14.4
2015-Aug-30 06:57 211 4 gusting 6 13.9
2015-Aug-30 06:47 210 4 gusting 7 13.9
2015-Aug-30 06:37 194 13.3
2015-Aug-30 06:27 211 0 gusting 3 13.3
2015-Aug-30 06:17 179 12.8
2015-Aug-30 06:07 210 12.8
2015-Aug-30 05:57 210 12.8
2015-Aug-30 05:47 210 12.2
2015-Aug-30 05:37 210 12.2
2015-Aug-30 05:27 210 12.2
2015-Aug-30 05:17 210 11.7
2015-Aug-30 05:07 210 11.7
2015-Aug-30 04:57 210 11.7
2015-Aug-30 04:47 210 11.7
2015-Aug-30 04:37 210 11.1
2015-Aug-30 04:27 210 11.1
2015-Aug-30 04:17 210 11.1
2015-Aug-30 04:07 210 11.1
2015-Aug-30 03:57 210 11.1
2015-Aug-30 03:47 210 11.1
2015-Aug-30 03:37 210 11.1
2015-Aug-30 03:27 210 11.1
2015-Aug-30 03:17 210 10.6
2015-Aug-30 03:07 210 10.6
2015-Aug-30 02:57 210 10.6
2015-Aug-30 02:47 210 10.6
2015-Aug-30 02:37 210 10.6
2015-Aug-30 02:27 210 10.6
2015-Aug-30 02:17 210 10.6
2015-Aug-30 02:07 210 10.6
2015-Aug-30 01:56 210 10.6
2015-Aug-30 01:46 210 10.6
2015-Aug-30 01:36 210 10.6
2015-Aug-30 01:26 210 10.6
2015-Aug-30 01:16 210 10.6
2015-Aug-30 01:06 210 11.1
2015-Aug-30 00:56 210 11.1
2015-Aug-30 00:46 210 11.1
2015-Aug-30 00:36 210 11.1
2015-Aug-30 00:26 210 11.1
2015-Aug-30 00:16 210 11.1
2015-Aug-30 00:06 210 11.1
2015-Aug-29 23:56 210 11.1
2015-Aug-29 23:46 210 11.1
2015-Aug-29 23:36 210 11.7
2015-Aug-29 23:26 210 11.7
2015-Aug-29 23:16 210 11.7
2015-Aug-29 23:06 210 11.7
2015-Aug-29 22:56 210 11.7
2015-Aug-29 22:46 210 11.7
2015-Aug-29 22:36 210 11.7
2015-Aug-29 22:26 210 12.2
2015-Aug-29 22:16 210 12.2
2015-Aug-29 22:06 210 12.2
2015-Aug-29 21:56 210 12.2
2015-Aug-29 21:46 210 12.2
2015-Aug-29 21:36 210 12.2
2015-Aug-29 21:26 210 12.8
2015-Aug-29 21:16 210 12.8
2015-Aug-29 21:06 210 12.8
2015-Aug-29 20:56 210 12.8
2015-Aug-29 20:46 210 12.8
2015-Aug-29 20:36 210 13.3
2015-Aug-29 20:26 210 13.3
2015-Aug-29 20:16 210 13.3
2015-Aug-29 20:06 210 13.3
2015-Aug-29 19:56 210 13.3
2015-Aug-29 19:46 210 13.9
2015-Aug-29 19:36 210 13.9
2015-Aug-29 19:26 210 13.9
2015-Aug-29 19:16 210 14.4
2015-Aug-29 19:06 210 14.4
2015-Aug-29 18:56 210 15.0
2015-Aug-29 18:46 210 15.0
2015-Aug-29 18:36 210 15.0
2015-Aug-29 18:26 210 15.0
2015-Aug-29 18:15 210 15.6
2015-Aug-29 18:05 220 0 gusting 3 15.6
2015-Aug-29 17:55 214 15.6
2015-Aug-29 17:45 241 0 gusting 4 16.1
2015-Aug-29 17:35 242 1 gusting 5 16.1
2015-Aug-29 17:13 241 4 gusting 7 16.1
2015-Aug-29 17:03 233 3 gusting 7 16.7
2015-Aug-29 16:53 234 1 gusting 7 16.7
2015-Aug-29 16:43 217 3 gusting 6 16.7
2015-Aug-29 16:33 223 2 gusting 7 16.7
2015-Aug-29 16:23 251 2 gusting 6 16.7
2015-Aug-29 16:13 244 4 gusting 7 17.2
2015-Aug-29 16:03 223 2 gusting 9 17.2
2015-Aug-29 15:53 244 6 gusting 11 17.2
2015-Aug-29 15:43 245 5 gusting 14 17.2
2015-Aug-29 15:33 255 2 gusting 12 17.2
2015-Aug-29 15:23 240 5 gusting 11 17.2
2015-Aug-29 15:13 247 4 gusting 11 17.2
2015-Aug-29 15:03 245 6 gusting 12 17.2
2015-Aug-29 14:53 250 3 gusting 13 17.8
2015-Aug-29 14:43 248 5 gusting 11 17.8
2015-Aug-29 14:33 256 2 gusting 11 17.8
2015-Aug-29 14:23 241 4 gusting 13 17.8
2015-Aug-29 14:13 250 4 gusting 13 17.8
2015-Aug-29 14:03 246 3 gusting 10 18.3
2015-Aug-29 13:53 241 4 gusting 11 18.3
2015-Aug-29 13:43 246 3 gusting 14 18.3
2015-Aug-29 13:33 234 4 gusting 11 18.3
2015-Aug-29 13:23 235 6 gusting 11 18.3
2015-Aug-29 13:13 245 3 gusting 18 17.8
2015-Aug-29 13:03 237 5 gusting 12 17.8
2015-Aug-29 12:53 252 3 gusting 15 17.8
2015-Aug-29 12:43 239 8 gusting 16 17.8
2015-Aug-29 12:33 225 6 gusting 12 17.8
2015-Aug-29 12:23 238 6 gusting 13 17.8
2015-Aug-29 12:13 239 5 gusting 13 17.8
2015-Aug-29 12:03 240 5 gusting 11 17.8
2015-Aug-29 11:53 248 3 gusting 14 18.3
2015-Aug-29 11:42 243 4 gusting 13 18.3
2015-Aug-29 11:32 238 6 gusting 13 18.3
2015-Aug-29 11:22 223 6 gusting 14 18.3
2015-Aug-29 11:12 206 5 gusting 14 17.8
2015-Aug-29 11:02 217 5 gusting 13 17.8
2015-Aug-29 10:52 248 3 gusting 14 18.3
2015-Aug-29 10:42 239 5 gusting 14 18.3
2015-Aug-29 10:32 245 6 gusting 13 18.3
2015-Aug-29 10:22 220 5 gusting 13 18.3